Location: Allonne
(49.4086°N, 2.1143°E)
Time: 18:43:17
(UTC+00:00)

ATLAS CENTAUR R/B - Visible Passes

Search period start: 01 October 2023 00:00
Search period end: 11 October 2023 00:00
Orbit: 461 x 614 km, 64.7° (Epoch: 25 September)

Date Brightness Start Highest point End Pass type
(mag) Time Alt. Az. Time Alt. Az. Time Alt. Az.
01 Oct 3.8 04:01:52 10° N 04:03:55 14° NNE 04:05:58 10° ENE visible
02 Oct 3.8 03:52:52 10° N 03:55:09 16° NNE 03:57:24 10° ENE visible
03 Oct 3.7 03:43:52 10° NNW 03:46:20 17° NNE 03:48:46 10° ENE visible
03 Oct 1.0 05:21:19 10° NW 05:24:56 86° SW 05:28:31 10° SE visible
04 Oct 3.6 03:34:51 10° NNW 03:37:29 19° NNE 03:40:06 10° E visible
04 Oct 0.9 05:12:25 10° NW 05:16:00 73° SW 05:19:33 10° SSE visible
05 Oct 3.5 03:26:36 14° N 03:28:36 21° NNE 03:31:23 10° E visible
05 Oct 1.0 05:03:28 10° NW 05:07:01 60° SW 05:10:33 10° SSE visible
06 Oct 3.2 03:18:35 20° N 03:19:42 23° NE 03:22:36 10° E visible
06 Oct 1.1 04:54:32 10° NW 04:58:00 50° WSW 05:01:30 10° SSE visible
07 Oct 3.1 03:10:44 25° NE 03:10:45 25° NE 03:13:47 10° E visible
07 Oct 1.3 04:46:14 14° NW 04:48:59 42° WSW 04:52:22 10° SSE visible
08 Oct 3.4 03:03:05 22° ENE 03:03:05 22° ENE 03:04:55 10° E visible
08 Oct 1.6 04:38:35 26° WNW 04:39:54 35° WSW 04:43:11 10° S visible
09 Oct 4.0 02:55:37 12° ESE 02:55:37 12° ESE 02:56:00 10° ESE visible
09 Oct 1.9 04:31:08 29° SW 04:31:08 29° SW 04:33:57 10° S visible
09 Oct 3.4 18:26:53 10° SE 18:27:07 11° SE 18:27:07 11° SE visible
09 Oct 4.0 20:02:34 10° SW 20:02:37 10° SW 20:02:37 10° SW visible
10 Oct 3.1 04:23:50 15° SSW 04:23:50 15° SSW 04:24:38 10° S visible
10 Oct 2.8 18:17:16 10° SSE 18:19:32 16° ESE 18:19:32 16° ESE visible
10 Oct 3.2 19:53:30 10° SW 19:55:01 22° SW 19:55:01 22° SW visible
